GSAT-30 (45026 NORAD) Tracking and Keplerian Element Data

This shows tracking and keplerian element data for the satellite.

Feedback or suggestion? Click here.




ElementValue
Catalog45026
NameGSAT-30
Epoch Orbit38
Epoch Day52.94215867
Epoch Year2020
RAAN270.2318
Inclination0.1012
Eccentricity0.0003464
Argument of Perigee6.425
Mean Anonmoly296.8027
Mean Motion1.00271532
Decay Rate-1.82E-06
L11 45026U 20005A 20052.94215867 -.00000182 00000-0 00000-0 0 9997
L22 45026 0.1012 270.2318 0003464 6.4250 296.8027 1.00271532 386

Live tracking and technical data element details for GSAT-30 (NORAD 45026). GSAT-30 can be tracked NOW for your location showing map with azimuth and elevation plus other details from your city location.

Track the satellite on the map from your city or location and see movement details for azimuth, elevation, latitude, longitude, range, height, and movement on the map or in text.







IsCatalogInMostPopularTable: catalog: 45026, numindb: 16
Update: records affected: 1



GetName: 45026 GSAT-30

Hit Count: updated at: Wed, 26 Feb 2020 15:43:05 GMT